Weather History for Morrisville, VT

Change the Weather History Date:

Tuesday, June 25, 2013

  Actual Average Record
Temperature  
Mean Temperature 74 °F 65 °F  
Max Temperature 87 °F 77 °F 93 °F (2005)
Min Temperature 61 °F 53 °F 46 °F (2002)
Degree Days  
Heating Degree Days 0 2  
Month to date heating degree days 130 115  
Since 1 June heating degree days 130 115  
Since 1 July heating degree days 7663 8246  
Cooling Degree Days 9 2  
Month to date cooling degree days 46 35  
Year to date cooling degree days 66 43  
Since 1 June cooling degree days 46 35  
Growing Degree Days 24 (Base 50)    
Moisture  
Dew Point 64 °F    
Average Humidity 75    
Maximum Humidity 100    
Minimum Humidity 50    
Precipitation  
Precipitation 0.43 in 0.16 in 1.08 in (2014)
Month to date precipitation 6.00 3.27  
Year to date precipitation 18.01 14.89  
Sea Level Pressure  
Sea Level Pressure 29.84 in    
Wind  
Wind Speed 2 mph (South)    
Max Wind Speed 23 mph    
Max Gust Speed 35 mph    
Visibility 5 miles    
Events Fog , Rain , Thunderstorm    
T = Trace of Precipitation, MM = Missing Value Source: NWS Daily Summary

Daily Weather History Graph

Daily Weather History Graph

Search for Another Location

Airport:

Trip Planner

Search our weather history database for the weather conditions in past years. The results will help you decide how hot, cold, wet, or windy it might be!

Date:

Astronomy

Jun. 25, 2013 Rise Set
Actual Time 5:06 AM EDT 8:39 PM EDT
Civil Twilight 4:29 AM EDT 9:16 PM EDT
Nautical Twilight 3:41 AM EDT 10:05 PM EDT
Astronomical Twilight 2:37 AM EDT 11:08 PM EDT
Moon 10:14 PM EDT (6/25) 7:49 AM EDT (6/25)
Length of Visible Light 16h 46m
Length of Day
15h 32m
Waning Gibbous, 93% of the Moon is Illuminated
Jun 25
Waning Gibbous
Jun 30
Last Quarter
Jul 8
New
Jul 15
First Quarter
Jul 22
Full

Hourly Weather History & Observations

Time (EDT) Temp. Heat Index Dew Point Humidity Pressure Visibility Wind Dir Wind Speed Gust Speed Precip Events Conditions
12:54 AM 64.9 °F - 63.0 °F 93% 29.93 in 10.0 mi Calm Calm - N/A   Clear
1:54 AM 64.0 °F - 62.1 °F 93% 29.91 in 9.0 mi Calm Calm - N/A   Clear
2:54 AM 63.0 °F - 61.0 °F 93% 29.90 in 7.0 mi Calm Calm - N/A   Clear
3:20 AM 62.6 °F - 60.8 °F 94% 29.90 in 4.0 mi Calm Calm - N/A   Scattered Clouds
3:54 AM 62.1 °F - 61.0 °F 96% 29.90 in 2.0 mi Calm Calm - N/A   Mostly Cloudy
4:03 AM 60.8 °F - 60.8 °F 100% 29.90 in 1.2 mi Calm Calm - N/A   Mostly Cloudy
4:09 AM 62.6 °F - 60.8 °F 94% 29.91 in 2.0 mi Calm Calm - N/A   Overcast
4:18 AM 62.6 °F - 60.8 °F 94% 29.90 in 5.0 mi Calm Calm - N/A   Overcast
4:41 AM 62.6 °F - 60.8 °F 94% 29.90 in 3.0 mi Calm Calm - N/A   Overcast
4:54 AM 62.1 °F - 61.0 °F 96% 29.90 in 2.5 mi North 3.5 mph - N/A   Overcast
5:02 AM 62.6 °F - 60.8 °F 94% 29.90 in 1.8 mi Calm Calm - N/A   Overcast
5:06 AM 62.6 °F - 60.8 °F 94% 29.90 in 3.0 mi Calm Calm - N/A   Overcast
5:54 AM 62.1 °F - 61.0 °F 96% 29.90 in 5.0 mi Calm Calm - N/A   Clear
6:17 AM 64.4 °F - 62.6 °F 94% 29.90 in 6.0 mi Calm Calm - N/A   Scattered Clouds
6:54 AM 64.9 °F - 63.0 °F 93% 29.89 in 8.0 mi Calm Calm - N/A   Scattered Clouds
7:54 AM 68.0 °F - 64.0 °F 87% 29.88 in 9.0 mi Calm Calm - N/A   Clear
8:54 AM 73.9 °F - 66.9 °F 79% 29.87 in 10.0 mi Calm Calm - N/A   Partly Cloudy
9:54 AM 78.1 °F - 69.1 °F 74% 29.86 in 10.0 mi Calm Calm - N/A   Mostly Cloudy
10:54 AM 82.0 °F 85.5 °F 69.1 °F 65% 29.86 in 10.0 mi Variable 3.5 mph - N/A   Mostly Cloudy
11:54 AM 84.0 °F 87.0 °F 68.0 °F 58% 29.84 in 10.0 mi South 6.9 mph - N/A   Partly Cloudy
12:54 PM 84.9 °F 88.2 °F 68.0 °F 57% 29.82 in 10.0 mi South 10.4 mph - N/A   Scattered Clouds
1:54 PM 87.1 °F 89.9 °F 66.9 °F 51% 29.77 in 10.0 mi South 5.8 mph - N/A   Partly Cloudy
2:54 PM 84.9 °F 87.1 °F 66.0 °F 53% 29.77 in 10.0 mi SSW 4.6 mph - N/A   Mostly Cloudy
3:14 PM 80.6 °F 82.7 °F 66.2 °F 61% 29.78 in 10.0 mi NNW 19.6 mph 27.6 mph N/A Thunderstorm Scattered Clouds
3:33 PM 71.6 °F - 64.4 °F 78% 29.80 in 9.0 mi North 17.3 mph 31.1 mph 0.01 in Rain , Thunderstorm Light Thunderstorms and Rain
3:51 PM 69.8 °F - 64.4 °F 83% 29.83 in 1.8 mi SSE 4.6 mph - 0.08 in Rain , Thunderstorm Thunderstorms and Rain
3:54 PM 68.0 °F - 64.9 °F 90% 29.84 in 1.5 mi SE 8.1 mph - 0.10 in Rain , Thunderstorm Heavy Thunderstorms and Rain
4:05 PM 66.2 °F - 64.4 °F 94% 29.85 in 2.5 mi Calm Calm - 0.04 in Rain , Thunderstorm Thunderstorms and Rain
4:17 PM 68.0 °F - 66.2 °F 94% 29.86 in 3.0 mi SSW 8.1 mph - 0.06 in Rain , Thunderstorm Light Rain
4:29 PM 68.0 °F - 66.2 °F 94% 29.83 in 2.0 mi South 3.5 mph - 0.10 in Rain , Thunderstorm Thunderstorms and Rain
4:40 PM 68.0 °F - 66.2 °F 94% 29.81 in 4.0 mi South 4.6 mph - 0.11 in Rain Light Rain
4:54 PM 68.0 °F - 66.0 °F 93% 29.81 in 3.0 mi South 3.5 mph - 0.14 in Rain Rain
5:54 PM 69.1 °F - 66.9 °F 93% 29.80 in 9.0 mi Calm Calm - 0.01 in Rain Light Rain
6:30 PM 68.0 °F - 66.2 °F 94% 29.82 in 2.5 mi Calm Calm - 0.08 in Rain Rain
6:54 PM 68.0 °F - 66.9 °F 96% 29.81 in 3.0 mi Calm Calm - 0.15 in Rain Light Rain
7:54 PM 68.0 °F - 66.0 °F 93% 29.79 in 10.0 mi South 3.5 mph - 0.03 in   Overcast
8:51 PM 68.0 °F - 66.2 °F 94% 29.80 in 9.0 mi Calm Calm - N/A   Overcast
8:54 PM 68.0 °F - 66.0 °F 93% 29.79 in 9.0 mi Calm Calm - N/A   Overcast
9:54 PM 66.9 °F - 66.0 °F 97% 29.79 in 5.0 mi Calm Calm - N/A   Scattered Clouds
10:02 PM 66.2 °F - 64.4 °F 94% 29.79 in 1.5 mi Calm Calm - N/A   Partly Cloudy
10:05 PM 66.2 °F - 64.4 °F 94% 29.78 in 0.8 mi Calm Calm - N/A   Mist
10:21 PM 66.2 °F - 64.4 °F 94% 29.78 in 1.2 mi SSW 4.6 mph - N/A   Mostly Cloudy
10:24 PM 66.2 °F - 64.4 °F 94% 29.78 in 3.0 mi South 3.5 mph - N/A   Mostly Cloudy
10:31 PM 66.2 °F - 64.4 °F 94% 29.78 in 5.0 mi Calm Calm - N/A   Scattered Clouds
10:54 PM 66.0 °F - 64.9 °F 96% 29.78 in 6.0 mi Calm Calm - N/A   Partly Cloudy
11:03 PM 66.2 °F - 64.4 °F 94% 29.78 in 5.0 mi Calm Calm - N/A   Mostly Cloudy
11:13 PM 64.4 °F - 64.4 °F 100% 29.78 in 1.8 mi Calm Calm - N/A   Mostly Cloudy
11:17 PM 64.4 °F - 64.4 °F 100% 29.78 in 0.8 mi Calm Calm - N/A   Mostly Cloudy
11:27 PM 64.4 °F - 64.4 °F 100% 29.78 in 1.2 mi Calm Calm - N/A   Overcast
11:41 PM 64.4 °F - 64.4 °F 100% 29.78 in 1.0 mi Calm Calm - N/A   Mist
11:54 PM 66.0 °F - 64.9 °F 96% 29.78 in 0.5 mi Calm Calm - N/A Fog Fog